CW5689 Weather Reports


time (UTC)temp
C
wind
direction
speed
KPH
gust
KPH
rain 1hr
cm
rain 24hr
cm
rain mn
cm
humidity
%
barometer
mb
20260906162521 25 0 1.6 12.9 0.00 0.00 0.00 78 1019.2
20260906162020 25 107 3.2 12.9 0.00 0.00 0.00 77 1019.2
20260906161540 25 136 4.8 12.9 0.00 0.00 0.00 78 1019.2
20260906161018 25 198 3.2 8.0 0.00 0.00 0.00 79 1019.2
20260906160520 25 0 0.0 12.9 0.00 0.00 0.00 79 1019.3
20260906160042 25 0 0.0 14.5 0.00 0.00 0.00 79 1019.3
20260906155520 24 176 4.8 14.5 0.00 0.00 0.00 80 1019.4
20260906155020 24 157 4.8 14.5 0.00 0.00 0.00 81 1019.5
20260906154537 23 130 3.2 12.9 0.00 0.00 0.00 81 1019.5
20260906154024 23 205 3.2 12.9 0.00 0.00 0.00 83 1019.5
20260906153525 23 0 0.0 12.9 0.00 0.00 0.00 82 1019.4
20260906153041 23 0 1.6 12.9 0.00 0.00 0.00 83 1019.5
20260906152522 23 196 0.0 9.7 0.00 0.00 0.00 84 1019.6
20260906152018 23 147 3.2 11.3 0.00 0.00 0.00 83 1019.5
20260906151540 23 0 1.6 11.3 0.00 0.00 0.00 83 1019.6
20260906151019 23 187 3.2 14.5 0.00 0.00 0.00 84 1019.6
20260906150520 23 179 1.6 14.5 0.00 0.00 0.00 83 1019.5
20260906150042 23 186 3.2 14.5 0.00 0.00 0.00 86 1019.4
20260906145517 22 224 1.6 8.0 0.00 0.00 0.00 87 1019.5
20260906145018 22 0 0.0 9.7 0.00 0.00 0.00 86 1019.3
20260906144542 22 0 1.6 11.3 0.00 0.00 0.00 87 1019.4
20260906144021 22 164 1.6 11.3 0.00 0.00 0.00 89 1019.4
20260906143521 22 111 1.6 11.3 0.00 0.00 0.00 88 1019.5
20260906143041 22 0 0.0 11.3 0.00 0.00 0.00 89 1019.4
20260906142520 21 194 1.6 9.7 0.00 0.00 0.00 90 1019.5
20260906142020 21 125 0.0 4.8 0.00 0.00 0.00 90 1019.4
20260906141541 21 124 1.6 9.7 0.00 0.00 0.00 91 1019.4
20260906141020 21 0 0.0 9.7 0.00 0.00 0.00 90 1019.4
20260906140521 21 143 1.6 6.4 0.00 0.00 0.00 91 1019.4
20260906140040 21 0 1.6 6.4 0.00 0.00 0.00 91 1019.4
20260906135524 21 86 1.6 4.8 0.00 0.00 0.00 91 1019.4
20260906135024 21 86 3.2 6.4 0.00 0.00 0.00 91 1019.4
20260906134537 21 87 3.2 6.4 0.00 0.00 0.00 91 1019.3
20260906134021 21 90 3.2 6.4 0.00 0.00 0.00 92 1019.2
20260906133518 20 119 3.2 4.8 0.00 0.00 0.00 92 1019.2
20260906133043 20 121 1.6 4.8 0.00 0.00 0.00 92 1019.2
20260906132522 20 122 1.6 4.8 0.00 0.00 0.00 92 1019.2
20260906132019 20 133 1.6 4.8 0.00 0.00 0.00 92 1019.2
20260906131543 20 130 0.0 4.8 0.00 0.00 0.00 92 1019.2
20260906131020 20 130 0.0 8.0 0.00 0.00 0.00 92 1019.2
20260906130520 20 130 0.0 8.0 0.00 0.00 0.00 92 1019.2
20260906130038 20 164 1.6 6.4 0.00 0.00 0.00 92 1019.0
20260906125518 20 161 0.0 8.0 0.00 0.00 0.00 93 1019.0
20260906125020 20 195 1.6 8.0 0.00 0.00 0.00 93 1018.9
20260906124539 20 0 1.6 8.0 0.00 0.00 0.00 93 1018.9
20260906124019 20 193 0.0 4.8 0.00 0.00 0.00 93 1019.1
20260906123518 20 163 0.0 4.8 0.00 0.00 0.00 93 1019.2
20260906123046 20 183 0.0 4.8 0.00 0.00 0.00 93 1019.1
20260906122523 19 202 0.0 11.3 0.00 0.00 0.00 93 1018.9
20260906122023 19 0 0.0 11.3 0.00 0.00 0.00 93 1018.9
20260906121548 19 0 0.0 0.0 0.00 0.00 0.00 92 1018.8
20260906121024 19 0 0.0 0.0 0.00 0.00 0.00 92 1018.8
20260906121011 19 118 0.0 0.0 0.00 0.00 0.00 92 1018.2
20260906120523 19 0 0.0 0.0 0.00 0.00 0.00 92 1018.7
20260906120511 19 121 0.0 0.0 0.00 0.00 0.00 92 1018.1
20260906120055 19 0 0.0 0.0 0.00 0.00 0.00 92 1018.7
20260906120011 19 121 0.0 0.0 0.00 0.00 0.00 91 1018.1
20260906115523 19 0 0.0 0.0 0.00 0.00 0.00 92 1018.7
20260906115018 19 0 0.0 0.0 0.00 0.00 0.00 92 1018.6
20260906114543 19 0 0.0 0.0 0.00 0.00 0.00 92 1018.6
20260906114511 19 121 0.0 0.0 0.00 0.00 0.00 92 1018.0
20260906114020 19 0 0.0 0.0 0.00 0.00 0.00 92 1018.6
20260906114012 19 121 0.0 0.0 0.00 0.00 0.00 92 1017.9
20260906113523 19 0 0.0 0.0 0.00 0.00 0.00 92 1018.5
20260906113511 19 180 0.0 0.0 0.00 0.00 0.00 91 1017.9
20260906113047 19 0 0.0 0.0 0.00 0.00 0.00 92 1018.6
20260906113011 19 218 0.0 0.0 0.00 0.00 0.00 91 1018.0
20260906112527 19 0 0.0 0.0 0.00 0.00 0.00 92 1018.5
20260906112511 19 218 0.0 0.0 0.00 0.00 0.00 91 1018.0
20260906112019 19 0 0.0 0.0 0.00 0.00 0.00 92 1018.5
20260906112011 19 218 0.0 0.0 0.00 0.00 0.00 91 1017.9
20260906111559 19 0 0.0 0.0 0.00 0.00 0.00 92 1018.4
20260906111511 19 219 0.0 0.0 0.00 0.00 0.00 91 1017.8
20260906111023 19 0 0.0 0.0 0.00 0.00 0.00 92 1018.3
20260906111011 19 219 0.0 0.0 0.00 0.00 0.00 91 1017.7
20260906110524 19 0 0.0 0.0 0.00 0.00 0.00 92 1018.3
20260906110511 19 219 0.0 0.0 0.00 0.00 0.00 91 1017.7
20260906110044 19 0 0.0 0.0 0.00 0.00 0.00 91 1018.3
20260906110011 20 219 0.0 0.0 0.00 0.00 0.00 91 1017.7
20260906105526 19 0 0.0 0.0 0.00 0.00 0.00 92 1018.0
20260906105511 20 218 0.0 0.0 0.00 0.00 0.00 91 1017.5
20260906105023 19 0 0.0 0.0 0.00 0.00 0.00 92 1018.1
20260906105011 20 218 0.0 0.0 0.00 0.00 0.00 91 1017.5
20260906104541 19 0 0.0 0.0 0.00 0.00 0.00 92 1018.0
20260906104511 20 218 0.0 0.0 0.00 0.00 0.00 91 1017.4
20260906104021 19 0 0.0 0.0 0.00 0.00 0.00 92 1018.1
20260906104011 20 218 0.0 0.0 0.00 0.00 0.00 91 1017.4
20260906103521 19 0 0.0 0.0 0.00 0.00 0.00 92 1018.0
20260906103511 20 218 0.0 0.0 0.00 0.00 0.00 91 1017.4
20260906103038 19 0 0.0 0.0 0.00 0.00 0.00 92 1018.0
20260906103011 20 218 0.0 0.0 0.00 0.00 0.00 91 1017.4
20260906102519 19 0 0.0 0.0 0.00 0.00 0.00 92 1018.0
20260906102019 19 0 0.0 0.0 0.00 0.00 0.00 92 1018.0
20260906102011 20 218 0.0 0.0 0.00 0.00 0.00 91 1017.4
20260906101538 19 0 0.0 0.0 0.00 0.00 0.00 92 1018.0
20260906101511 20 218 0.0 0.0 0.00 0.00 0.00 91 1017.3
20260906101023 19 0 0.0 0.0 0.00 0.00 0.00 92 1017.9
20260906100526 19 0 0.0 0.0 0.00 0.00 0.00 92 1017.8
20260906100510 20 218 0.0 0.0 0.00 0.00 0.00 91 1017.2
20260906100042 19 0 0.0 3.2 0.00 0.00 0.00 92 1017.7
20260906100011 20 218 0.0 0.0 0.00 0.00 0.00 91 1017.0
20260906095518 19 0 0.0 3.2 0.00 0.00 0.00 92 1017.5
20260906095511 20 218 0.0 0.0 0.00 0.00 0.00 91 1016.9
20260906095021 19 0 1.6 4.8 0.00 0.00 0.00 92 1017.5
20260906095011 20 218 1.6 0.0 0.00 0.00 0.00 91 1016.9
20260906094542 19 218 1.6 6.4 0.00 0.00 0.00 92 1017.4
20260906094511 20 218 1.6 0.0 0.00 0.00 0.00 91 1016.7
20260906094021 19 218 1.6 6.4 0.00 0.00 0.00 92 1017.3
20260906094012 20 218 0.0 0.0 0.00 0.00 0.00 91 1016.7
20260906093522 19 218 1.6 6.4 0.00 0.00 0.00 92 1017.2
20260906093511 20 218 1.6 0.0 0.00 0.00 0.00 91 1016.6
20260906093048 19 0 0.0 0.0 0.00 0.00 0.00 91 1017.2
20260906093011 20 203 0.0 0.0 0.00 0.00 0.00 91 1016.7
20260906092523 19 0 0.0 0.0 0.00 0.00 0.00 92 1017.2
20260906092511 20 203 0.0 0.0 0.00 0.00 0.00 91 1016.6
20260906092024 19 0 0.0 0.0 0.00 0.00 0.00 91 1017.2
20260906091546 19 0 0.0 3.2 0.00 0.00 0.00 91 1017.2
20260906091511 20 203 0.0 0.0 0.00 0.00 0.00 91 1016.7
20260906091023 19 0 0.0 3.2 0.00 0.00 0.00 91 1017.3
20260906091011 20 203 0.0 0.0 0.00 0.00 0.00 91 1016.7
20260906090523 19 0 0.0 4.8 0.00 0.00 0.00 91 1017.2
20260906090511 20 203 1.6 0.0 0.00 0.00 0.00 91 1016.6
20260906090048 19 0 0.0 4.8 0.00 0.00 0.00 91 1017.2
20260906090011 20 203 0.0 0.0 0.00 0.00 0.00 91 1016.6
20260906085519 19 203 1.6 4.8 0.00 0.00 0.00 91 1017.2
20260906085511 20 203 3.2 0.0 0.00 0.00 0.00 90 1016.6
20260906085023 19 203 1.6 3.2 0.00 0.00 0.00 91 1017.2
20260906085011 20 203 1.6 0.0 0.00 0.00 0.00 90 1016.7
20260906084548 19 203 1.6 3.2 0.00 0.00 0.00 91 1017.3
20260906084511 20 203 1.6 0.0 0.00 0.00 0.00 90 1016.7
20260906084020 19 203 0.0 3.2 0.00 0.00 0.00 91 1017.2
20260906084011 20 203 3.2 0.0 0.00 0.00 0.00 91 1016.6
20260906083521 19 0 0.0 1.6 0.00 0.00 0.00 91 1017.2
20260906083511 20 203 0.0 0.0 0.00 0.00 0.00 90 1016.6
20260906083039 19 0 0.0 0.0 0.00 0.00 0.00 91 1017.1
20260906083011 20 203 0.0 0.0 0.00 0.00 0.00 90 1016.5
20260906082518 20 0 0.0 0.0 0.00 0.00 0.00 91 1017.2
20260906082511 20 203 0.0 0.0 0.00 0.00 0.00 90 1016.6
20260906082024 20 0 0.0 3.2 0.00 0.00 0.00 91 1017.2
20260906082011 20 203 0.0 0.0 0.00 0.00 0.00 90 1016.5
20260906081546 20 0 0.0 3.2 0.00 0.00 0.00 91 1017.3
20260906081511 20 203 0.0 0.0 0.00 0.00 0.00 90 1016.7
20260906081024 20 0 0.0 3.2 0.00 0.00 0.00 90 1017.3
20260906081011 20 203 0.0 0.0 0.00 0.00 0.00 90 1016.7
20260906080524 20 0 1.6 4.8 0.00 0.00 0.00 90 1017.3
20260906080511 20 203 1.6 0.0 0.00 0.00 0.00 90 1016.7
20260906080044 20 203 1.6 4.8 0.00 0.00 0.00 91 1017.3
20260906080011 20 203 1.6 0.0 0.00 0.00 0.00 90 1016.7
20260906075525 20 203 0.0 8.0 0.00 0.00 0.00 90 1017.4
20260906075511 20 203 1.6 0.0 0.00 0.00 0.00 90 1016.7
20260906075021 20 0 1.6 8.0 0.00 0.00 0.00 90 1017.3
20260906074539 20 194 1.6 8.0 0.00 0.00 0.00 90 1017.3
20260906074511 20 194 1.6 0.0 0.00 0.00 0.00 89 1016.6
20260906074024 20 0 0.0 0.0 0.00 0.00 0.00 90 1017.2
20260906074011 20 172 0.0 0.0 0.00 0.00 0.00 89 1016.6
20260906073522 20 0 0.0 0.0 0.00 0.00 0.00 90 1017.3
20260906073511 20 91 0.0 0.0 0.00 0.00 0.00 90 1016.7
20260906073042 20 0 0.0 3.2 0.00 0.00 0.00 90 1017.4
20260906073011 20 91 0.0 0.0 0.00 0.00 0.00 90 1016.8
20260906072520 20 0 0.0 3.2 0.00 0.00 0.00 91 1017.4
20260906072511 20 91 0.0 0.0 0.00 0.00 0.00 90 1016.8
20260906072020 20 0 0.0 1.6 0.00 0.00 0.00 91 1017.4
20260906072011 20 91 0.0 0.0 0.00 0.00 0.00 90 1016.8
20260906071555 20 0 0.0 1.6 0.00 0.00 0.00 91 1017.4
20260906071511 20 91 0.0 0.0 0.00 0.00 0.00 90 1016.8
20260906071024 20 0 0.0 4.8 0.00 0.00 0.00 91 1017.4
20260906071011 20 91 0.0 0.0 0.00 0.00 0.00 90 1016.7
20260906070524 20 0 0.0 4.8 0.00 0.00 0.00 91 1017.3
20260906070511 20 91 0.0 0.0 0.00 0.00 0.00 90 1016.7
20260906070044 20 0 0.0 0.0 0.00 0.00 0.00 91 1017.4
20260906070011 20 93 0.0 0.0 0.00 0.00 0.00 90 1016.7
20260906065524 20 0 0.0 0.0 0.00 0.00 0.00 90 1017.4
20260906065511 20 93 0.0 0.0 0.00 0.00 0.00 90 1016.7
20260906065024 20 0 0.0 0.0 0.00 0.00 0.00 90 1017.5
20260906065011 20 93 0.0 0.0 0.00 0.00 0.00 90 1016.9
20260906064539 20 0 0.0 6.4 0.00 0.00 0.00 90 1017.6
20260906064511 20 93 0.0 0.0 0.00 0.00 0.00 90 1017.0
20260906064021 20 0 0.0 6.4 0.00 0.00 0.00 90 1017.6
20260906064011 20 93 0.0 0.0 0.00 0.00 0.00 89 1017.0
20260906063522 20 0 0.0 0.0 0.00 0.00 0.00 89 1017.6
20260906063511 20 197 0.0 0.0 0.00 0.00 0.00 89 1017.0
20260906063042 20 0 0.0 0.0 0.00 0.00 0.00 89 1017.7
20260906062520 20 0 0.0 0.0 0.00 0.00 0.00 89 1017.7
20260906062511 21 197 0.0 0.0 0.00 0.00 0.00 89 1017.1
20260906062020 20 0 0.0 0.0 0.00 0.00 0.00 89 1017.8
20260906062011 21 197 0.0 0.0 0.00 0.00 0.00 89 1017.2
20260906061539 20 0 0.0 0.0 0.00 0.00 0.00 89 1017.8
20260906061511 21 197 0.0 0.0 0.00 0.00 0.00 89 1017.2
20260906061023 20 0 0.0 0.0 0.00 0.00 0.00 89 1017.8
20260906061011 21 197 0.0 0.0 0.00 0.00 0.00 89 1017.1
20260906060523 21 0 0.0 0.0 0.00 0.00 0.00 89 1017.7
20260906060511 21 197 0.0 0.0 0.00 0.00 0.00 89 1017.1
20260906060045 21 0 0.0 0.0 0.00 0.00 0.00 89 1017.7
20260906060011 21 197 0.0 0.0 0.00 0.00 0.00 89 1017.0
20260906055525 21 0 0.0 0.0 0.00 0.00 0.00 89 1017.8
20260906055511 21 197 0.0 0.0 0.00 0.00 0.00 88 1017.0
20260906055020 21 0 0.0 0.0 0.00 0.00 0.00 89 1017.7
20260906055011 21 197 0.0 0.0 0.00 0.00 0.00 88 1017.1
20260906054541 21 0 0.0 0.0 0.00 0.00 0.00 89 1017.8
20260906054512 21 197 0.0 0.0 0.00 0.00 0.00 88 1017.1
20260906054018 21 0 0.0 0.0 0.00 0.00 0.00 89 1017.7
20260906053520 21 0 0.0 0.0 0.00 0.00 0.00 89 1017.7
20260906053511 21 197 0.0 0.0 0.00 0.00 0.00 88 1017.1
20260906053042 21 0 0.0 0.0 0.00 0.00 0.00 88 1017.7
20260906053011 21 197 0.0 0.0 0.00 0.00 0.00 88 1017.1
20260906052521 21 0 0.0 0.0 0.00 0.00 0.00 88 1017.7
20260906052511 21 197 0.0 0.0 0.00 0.00 0.00 88 1017.1
20260906052023 21 0 0.0 0.0 0.00 0.00 0.00 88 1017.8
20260906052011 21 197 0.0 0.0 0.00 0.00 0.00 88 1017.1
20260906051538 21 0 0.0 0.0 0.00 0.00 0.00 88 1017.8
20260906051020 21 0 0.0 0.0 0.00 0.00 0.00 88 1017.7
20260906051011 21 197 0.0 0.0 0.00 0.00 0.00 88 1017.0
20260906050526 21 0 0.0 0.0 0.00 0.00 0.00 88 1017.7
20260906050511 21 197 0.0 0.0 0.00 0.00 0.00 88 1017.0
20260906050044 21 0 0.0 0.0 0.00 0.00 0.00 88 1017.7
20260906050011 21 197 0.0 0.0 0.00 0.00 0.00 88 1017.0
20260906045525 21 0 0.0 0.0 0.00 0.00 0.00 88 1017.8
20260906045511 21 197 0.0 0.0 0.00 0.00 0.00 88 1017.1
20260906045022 21 0 0.0 0.0 0.00 0.00 0.00 88 1017.8
20260906045011 21 197 0.0 0.0 0.00 0.00 0.00 88 1017.1
20260906044543 21 0 0.0 0.0 0.00 0.00 0.00 88 1017.9
20260906044512 21 197 0.0 0.0 0.00 0.00 0.00 87 1017.1
20260906044020 21 0 0.0 0.0 0.00 0.00 0.00 88 1017.8
20260906043519 21 0 0.0 0.0 0.00 0.00 0.00 88 1017.9
20260906043511 21 196 0.0 0.0 0.00 0.00 0.00 87 1017.1
20260906043040 21 0 0.0 0.0 0.00 0.00 0.00 88 1017.9
20260906043011 21 196 0.0 0.0 0.00 0.00 0.00 87 1017.1
20260906042523 21 0 0.0 0.0 0.00 0.00 0.00 87 1017.9
20260906042511 21 196 0.0 0.0 0.00 0.00 0.00 87 1017.1
20260906042024 21 0 0.0 0.0 0.00 0.00 0.00 87 1017.9
20260906042011 21 196 0.0 0.0 0.00 0.00 0.00 87 1017.1
20260906041552 21 0 0.0 0.0 0.00 0.00 0.00 87 1018.0
20260906041027 21 0 0.0 0.0 0.00 0.00 0.00 87 1017.9
20260906041011 22 195 0.0 0.0 0.00 0.00 0.00 86 1017.1
20260906040524 21 0 0.0 0.0 0.00 0.00 0.00 87 1017.9
20260906040511 22 195 0.0 0.0 0.00 0.00 0.00 86 1017.1
20260906040045 21 0 0.0 0.0 0.00 0.00 0.00 87 1018.0
20260906040011 22 195 0.0 0.0 0.00 0.00 0.00 86 1017.1
20260906035518 21 0 0.0 0.0 0.00 0.00 0.00 86 1017.9
20260906035511 22 195 0.0 0.0 0.00 0.00 0.00 86 1017.2
20260906035019 21 0 0.0 0.0 0.00 0.00 0.00 86 1018.0
20260906035011 22 195 0.0 0.0 0.00 0.00 0.00 86 1017.2
20260906034546 22 0 0.0 0.0 0.00 0.00 0.00 86 1018.0
20260906034511 22 195 0.0 0.0 0.00 0.00 0.00 85 1017.1
20260906034025 22 0 0.0 0.0 0.00 0.00 0.00 86 1018.0
20260906034011 22 195 0.0 0.0 0.00 0.00 0.00 86 1017.2
20260906033524 22 0 0.0 0.0 0.00 0.00 0.00 86 1018.0
20260906033512 22 195 0.0 0.0 0.00 0.00 0.00 85 1017.1
20260906033038 22 0 0.0 0.0 0.00 0.00 0.00 85 1018.1
20260906033011 22 195 0.0 0.0 0.00 0.00 0.00 85 1017.2
20260906032520 22 0 0.0 0.0 0.00 0.00 0.00 85 1018.1
20260906032511 22 195 0.0 0.0 0.00 0.00 0.00 84 1017.3
20260906032059 22 0 0.0 0.0 0.00 0.00 0.00 85 1018.2
20260906032011 22 195 0.0 0.0 0.00 0.00 0.00 84 1017.4
20260906031543 22 0 0.0 0.0 0.00 0.00 0.00 85 1018.2
20260906031023 22 0 0.0 0.0 0.00 0.00 0.00 85 1018.2
20260906030519 22 0 0.0 0.0 0.00 0.00 0.00 84 1018.1
20260906030511 22 195 0.0 0.0 0.00 0.00 0.00 84 1017.4
20260906030041 22 0 0.0 0.0 0.00 0.00 0.00 84 1018.2
20260906030011 22 195 0.0 0.0 0.00 0.00 0.00 84 1017.3
20260906025519 22 0 0.0 0.0 0.00 0.00 0.00 84 1018.0
20260906025511 22 195 0.0 0.0 0.00 0.00 0.00 84 1017.2
20260906025025 22 0 0.0 0.0 0.00 0.00 0.00 84 1017.8
20260906025011 22 195 0.0 0.0 0.00 0.00 0.00 84 1017.0
20260906024558 22 0 0.0 0.0 0.00 0.00 0.00 84 1017.7
20260906024511 22 195 0.0 0.0 0.00 0.00 0.00 83 1016.9
20260906024024 22 0 0.0 0.0 0.00 0.00 0.00 83 1017.8
20260906023525 22 0 0.0 0.0 0.00 0.00 0.00 83 1017.6
20260906023511 22 196 0.0 0.0 0.00 0.00 0.00 82 1016.9
20260906023038 22 0 0.0 0.0 0.00 0.00 0.00 82 1017.5
20260906023011 23 196 0.0 0.0 0.00 0.00 0.00 82 1016.7
20260906022521 22 0 0.0 0.0 0.00 0.00 0.00 82 1017.4
20260906022023 23 0 0.0 0.0 0.00 0.00 0.00 82 1017.2
20260906022011 23 196 0.0 0.0 0.00 0.00 0.00 81 1016.4
20260906021541 23 0 0.0 0.0 0.00 0.00 0.00 81 1016.9
20260906021511 23 196 0.0 0.0 0.00 0.00 0.00 81 1016.2
20260906021023 23 0 0.0 0.0 0.00 0.00 0.00 81 1016.8
20260906021011 23 196 0.0 0.0 0.00 0.00 0.00 80 1016.0
20260906020524 23 0 0.0 0.0 0.00 0.00 0.00 81 1016.7
20260906020511 23 196 0.0 0.0 0.00 0.00 0.00 80 1015.9
20260906020047 23 0 0.0 0.0 0.00 0.00 0.00 80 1016.6
20260906020011 23 196 0.0 0.0 0.00 0.00 0.00 80 1015.9
20260906015524 23 0 0.0 0.0 0.00 0.00 0.00 80 1016.5
20260906015511 23 196 0.0 0.0 0.00 0.00 0.00 79 1015.7
20260906015025 23 0 0.0 0.0 0.00 0.00 0.00 79 1016.3
20260906015011 24 196 0.0 0.0 0.00 0.00 0.00 79 1015.5
20260906014552 23 0 0.0 0.0 0.00 0.00 0.00 79 1016.2
20260906014028 24 0 0.0 0.0 0.00 0.00 0.00 78 1016.1
20260906014011 24 196 0.0 0.0 0.00 0.00 0.00 78 1015.4
20260906013519 24 0 0.0 0.0 0.00 0.00 0.00 78 1016.2
20260906013511 24 196 0.0 0.0 0.00 0.00 0.00 78 1015.4
20260906013044 24 0 0.0 4.8 0.00 0.00 0.00 78 1016.2
20260906013010 24 196 0.0 0.0 0.00 0.00 0.00 77 1015.4
20260906012520 24 0 0.0 4.8 0.00 0.00 0.00 77 1016.0
20260906012021 24 0 1.6 4.8 0.00 0.00 0.00 77 1016.1
20260906011542 25 195 1.6 4.8 0.00 0.00 0.00 77 1015.9
20260906011510 25 195 3.2 0.0 0.00 0.00 0.00 76 1015.2
20260906011018 25 0 0.0 4.8 0.00 0.00 0.00 77 1015.8
20260906011010 25 143 0.0 0.0 0.00 0.00 0.00 77 1014.9
20260906010520 25 0 0.0 4.8 0.00 0.00 0.00 77 1015.8
20260906010510 25 140 0.0 0.0 0.00 0.00 0.00 77 1014.9
20260906010039 25 0 0.0 0.0 0.00 0.00 0.00 77 1015.6
20260906010010 25 88 0.0 0.0 0.00 0.00 0.00 76 1014.7
20260906005523 25 0 0.0 0.0 0.00 0.00 0.00 76 1015.5
20260906005510 25 88 0.0 0.0 0.00 0.00 0.00 76 1014.6
20260906005028 25 0 0.0 0.0 0.00 0.00 0.00 77 1015.4
20260906004543 25 0 0.0 0.0 0.00 0.00 0.00 76 1015.6
20260906004510 26 88 0.0 0.0 0.00 0.00 0.00 76 1014.7
20260906004024 25 0 0.0 0.0 0.00 0.00 0.00 76 1015.5
20260906004010 26 87 0.0 0.0 0.00 0.00 0.00 76 1014.7
20260906003527 26 0 0.0 4.8 0.00 0.00 0.00 75 1015.5
20260906003510 26 87 0.0 0.0 0.00 0.00 0.00 75 1014.7
20260906003051 26 0 0.0 4.8 0.00 0.00 0.00 75 1015.5
20260906003010 26 87 0.0 0.0 0.00 0.00 0.00 74 1014.8
20260906002520 26 87 0.0 6.4 0.00 0.00 0.00 75 1015.5
20260906002018 26 0 1.6 6.4 0.00 0.00 0.00 75 1015.4
20260906002010 26 86 1.6 0.0 0.00 0.00 0.00 74 1014.7
20260906001541 26 86 1.6 12.9 0.00 0.00 0.00 74 1015.2
20260906001510 26 81 4.8 1.6 0.00 0.00 0.00 74 1014.7
20260906001020 26 80 4.8 12.9 0.00 0.00 0.00 74 1015.3
20260906001010 26 80 6.4 1.6 0.00 0.00 0.00 74 1014.6
20260906000526 26 82 6.4 12.9 0.00 0.00 0.00 73 1015.2
20260906000511 26 78 8.0 1.6 0.00 0.00 0.00 73 1014.5
20260906000046 26 80 6.4 12.9 0.00 0.00 0.00 73 1015.2
20260906000010 26 80 9.7 1.6 0.00 0.00 0.00 72 1014.5
20260905235529 26 76 4.8 12.9 0.00 0.00 0.00 73 1015.2
20260905235024 26 78 6.4 16.1 0.00 0.00 0.00 73 1015.1
20260905235010 27 77 11.3 1.6 0.00 0.00 0.00 73 1014.5
20260905234544 26 78 6.4 16.1 0.00 0.00 0.00 73 1015.1
20260905234510 27 78 6.4 1.6 0.00 0.00 0.00 72 1014.4
20260905234024 27 75 9.7 16.1 0.00 0.00 0.00 72 1014.9
20260905234010 27 82 12.9 1.6 0.00 0.00 0.00 72 1014.2
20260905233524 27 74 6.4 20.9 0.00 0.00 0.00 72 1014.7
20260905233510 27 73 6.4 1.6 0.00 0.00 0.00 72 1014.1
20260905233043 27 79 11.3 20.9 0.00 0.00 0.00 71 1014.7
20260905233010 27 78 8.0 1.6 0.00 0.00 0.00 70 1013.9
20260905232521 27 82 8.0 16.1 0.00 0.00 0.00 70 1014.7
20260905232510 27 80 9.7 1.6 0.00 0.00 0.00 70 1014.0
20260905232022 27 75 6.4 14.5 0.00 0.00 0.00 70 1014.8
20260905232010 27 78 8.0 1.6 0.00 0.00 0.00 69 1014.2
20260905231541 27 82 8.0 14.5 0.00 0.00 0.00 69 1014.9
20260905231510 27 80 9.7 1.6 0.00 0.00 0.00 69 1014.2
20260905231025 27 86 9.7 16.1 0.00 0.00 0.00 70 1014.7
20260905230524 27 81 8.0 16.1 0.00 0.00 0.00 70 1014.7
20260905230040 27 77 8.0 16.1 0.00 0.00 0.00 69 1014.8
20260905230010 27 79 8.0 1.6 0.00 0.00 0.00 69 1014.1
20260905225526 27 87 6.4 17.7 0.00 0.00 0.00 70 1014.9
20260905225510 27 76 8.0 1.6 0.00 0.00 0.00 70 1014.2
20260905225023 27 72 11.3 17.7 0.00 0.00 0.00 70 1014.9
20260905225010 27 70 4.8 1.6 0.00 0.00 0.00 69 1014.2
20260905224542 27 64 12.9 19.3 0.00 0.00 0.00 70 1014.8
20260905224510 27 60 14.5 1.6 0.00 0.00 0.00 69 1014.1
20260905224020 27 76 11.3 22.5 0.00 0.00 0.00 69 1014.7
20260905224010 27 81 11.3 1.6 0.00 0.00 0.00 69 1014.0
20260905223519 27 72 11.3 22.5 0.00 0.00 0.00 70 1014.5
20260905223510 27 68 11.3 1.6 0.00 0.00 0.00 70 1013.9
20260905223038 27 75 14.5 22.5 0.00 0.00 0.00 69 1014.5
20260905223010 27 69 16.1 1.6 0.00 0.00 0.00 69 1013.8
20260905222528 27 68 11.3 22.5 0.00 0.00 0.00 69 1014.6
20260905222510 27 64 17.7 1.6 0.00 0.00 0.00 68 1013.9
20260905222024 27 93 11.3 22.5 0.00 0.00 0.00 69 1014.7
20260905222010 27 93 9.7 1.6 0.00 0.00 0.00 69 1014.0
20260905221546 27 74 16.1 22.5 0.00 0.00 0.00 69 1014.5
20260905221511 27 73 16.1 1.6 0.00 0.00 0.00 69 1013.9
20260905221026 27 59 9.7 22.5 0.00 0.00 0.00 70 1014.5
20260905221010 27 70 14.5 1.6 0.00 0.00 0.00 70 1013.9
20260905220524 27 77 11.3 22.5 0.00 0.00 0.00 71 1014.6
20260905220510 27 74 12.9 1.6 0.00 0.00 0.00 70 1013.9
20260905220045 27 61 16.1 22.5 0.00 0.00 0.00 71 1014.5
20260905220010 27 57 19.3 1.6 0.00 0.00 0.00 70 1013.9
20260905215519 27 70 14.5 22.5 0.00 0.00 0.00 71 1014.5
20260905215510 27 61 16.1 1.6 0.00 0.00 0.00 70 1013.9
20260905215023 27 71 14.5 27.4 0.00 0.00 0.00 71 1014.6
20260905215010 27 72 14.5 3.2 0.00 0.00 0.00 71 1014.0
20260905214541 27 59 9.7 27.4 0.00 0.00 0.00 71 1014.6
20260905214510 27 68 20.9 3.2 0.00 0.00 0.00 70 1014.0
20260905214018 27 71 14.5 22.5 0.00 0.00 0.00 71 1014.7
20260905213525 27 70 6.4 19.3 0.00 0.00 0.00 72 1014.7
20260905213510 27 69 12.9 1.6 0.00 0.00 0.00 73 1014.2
20260905213042 27 74 11.3 19.3 0.00 0.00 0.00 72 1014.9
20260905212529 27 69 3.2 11.3 0.00 0.00 0.00 73 1015.0
20260905212510 27 69 4.8 1.6 0.00 0.00 0.00 72 1014.3
20260905212024 27 57 3.2 6.4 0.00 0.00 0.00 72 1015.2
20260905211545 27 56 4.8 6.4 0.00 0.00 0.00 71 1015.3
20260905211510 27 56 4.8 0.0 0.00 0.00 0.00 71 1014.7
20260905211027 27 53 3.2 6.4 0.00 0.00 0.00 71 1015.5
20260905211010 27 53 3.2 0.0 0.00 0.00 0.00 70 1014.8
20260905210527 27 53 3.2 6.4 0.00 0.00 0.00 70 1015.6
20260905210510 27 53 4.8 0.0 0.00 0.00 0.00 69 1014.9
20260905210043 27 0 0.0 0.0 0.00 0.00 0.00 71 1015.7
20260905210010 27 52 0.0 0.0 0.00 0.00 0.00 70 1015.0
20260905205523 27 0 0.0 4.8 0.00 0.00 0.00 71 1015.8
20260905205511 27 52 0.0 0.0 0.00 0.00 0.00 70 1015.1
20260905205019 27 0 0.0 4.8 0.00 0.00 0.00 73 1015.8
20260905205010 27 52 0.0 0.0 0.00 0.00 0.00 72 1015.1
20260905204557 27 52 1.6 4.8 0.00 0.00 0.00 73 1015.8
20260905204024 27 52 0.0 4.8 0.00 0.00 0.00 71 1015.9
20260905204010 27 52 3.2 0.0 0.00 0.00 0.00 70 1015.2
20260905203518 27 0 0.0 6.4 0.00 0.00 0.00 74 1016.0
20260905203043 27 51 3.2 6.4 0.00 0.00 0.00 70 1016.2
20260905203010 27 50 1.6 0.0 0.00 0.00 0.00 70 1015.4
20260905202524 27 0 0.0 0.0 0.00 0.00 0.00 71 1016.2
20260905202024 27 0 0.0 0.0 0.00 0.00 0.00 71 1016.2
20260905201545 27 0 0.0 6.4 0.00 0.00 0.00 72 1016.2
20260905201510 27 49 0.0 0.0 0.00 0.00 0.00 72 1015.6
20260905201028 27 0 0.0 6.4 0.00 0.00 0.00 72 1016.3
20260905201010 27 49 0.0 0.0 0.00 0.00 0.00 72 1015.6
20260905200519 27 48 1.6 4.8 0.00 0.00 0.00 71 1016.4
20260905200510 27 48 4.8 0.0 0.00 0.00 0.00 71 1015.7
20260905200052 27 43 1.6 4.8 0.00 0.00 0.00 72 1016.5
20260905200010 27 43 4.8 0.0 0.00 0.00 0.00 71 1015.7
20260905195521 27 41 1.6 4.8 0.00 0.00 0.00 74 1016.5
20260905195510 28 41 3.2 0.0 0.00 0.00 0.00 72 1015.8
20260905195023 27 41 1.6 6.4 0.00 0.00 0.00 73 1016.5
20260905195010 28 40 3.2 0.0 0.00 0.00 0.00 72 1015.8
20260905194547 27 39 3.2 6.4 0.00 0.00 0.00 73 1016.6
20260905194510 28 39 3.2 0.0 0.00 0.00 0.00 73 1015.9
20260905194025 27 36 3.2 6.4 0.00 0.00 0.00 73 1016.6
20260905193519 27 36 3.2 6.4 0.00 0.00 0.00 70 1016.7
20260905193510 28 36 3.2 0.0 0.00 0.00 0.00 70 1015.9
20260905193052 28 2 3.2 8.0 0.00 0.00 0.00 71 1016.6
20260905193010 28 1 1.6 0.0 0.00 0.00 0.00 71 1015.9
20260905192526 28 152 1.6 8.0 0.00 0.00 0.00 70 1016.7
20260905192511 28 152 6.4 0.0 0.00 0.00 0.00 69 1015.9
20260905192025 28 0 0.0 8.0 0.00 0.00 0.00 70 1016.7
20260905192010 28 68 0.0 0.0 0.00 0.00 0.00 68 1016.0
20260905191544 28 0 0.0 8.0 0.00 0.00 0.00 68 1016.7
20260905191019 28 68 3.2 8.0 0.00 0.00 0.00 71 1016.7
20260905191011 28 68 4.8 0.0 0.00 0.00 0.00 70 1016.0
20260905190521 28 0 0.0 6.4 0.00 0.00 0.00 73 1016.8
20260905190510 28 71 0.0 0.0 0.00 0.00 0.00 73 1016.1
20260905190043 28 72 0.0 6.4 0.00 0.00 0.00 71 1016.7
20260905185519 28 74 1.6 6.4 0.00 0.00 0.00 71 1016.6
20260905185024 28 74 3.2 9.7 0.00 0.00 0.00 73 1016.7
20260905185010 28 74 3.2 0.0 0.00 0.00 0.00 73 1015.9
20260905184545 28 87 1.6 9.7 0.00 0.00 0.00 73 1016.6
20260905184511 28 87 3.2 0.0 0.00 0.00 0.00 73 1015.9
20260905184018 28 0 0.0 4.8 0.00 0.00 0.00 72 1016.5
20260905183525 27 65 1.6 6.4 0.00 0.00 0.00 73 1016.7
20260905183511 28 65 1.6 0.0 0.00 0.00 0.00 73 1015.9
20260905183046 27 66 1.6 6.4 0.00 0.00 0.00 75 1016.6
20260905183010 27 66 1.6 0.0 0.00 0.00 0.00 74 1016.0
20260905182524 27 68 3.2 6.4 0.00 0.00 0.00 75 1016.7
20260905182026 27 0 0.0 0.0 0.00 0.00 0.00 76 1016.8
20260905182010 27 70 0.0 0.0 0.00 0.00 0.00 75 1016.1
20260905181541 27 0 0.0 0.0 0.00 0.00 0.00 73 1016.9
20260905181511 27 70 0.0 0.0 0.00 0.00 0.00 73 1016.2
20260905181021 27 0 0.0 0.0 0.00 0.00 0.00 76 1017.0
20260905181011 27 71 0.0 0.0 0.00 0.00 0.00 76 1016.3
20260905180521 27 0 0.0 4.8 0.00 0.00 0.00 75 1017.1
20260905180510 27 71 0.0 0.0 0.00 0.00 0.00 75 1016.3
20260905180044 26 0 1.6 6.4 0.00 0.00 0.00 77 1017.1
20260905175525 26 0 0.0 6.4 0.00 0.00 0.00 77 1017.2
20260905175510 27 69 0.0 0.0 0.00 0.00 0.00 76 1016.5
20260905175019 26 68 3.2 8.0 0.00 0.00 0.00 76 1017.3
20260905174541 26 0 1.6 8.0 0.00 0.00 0.00 77 1017.4
20260905174510 26 68 0.0 0.0 0.00 0.00 0.00 76 1016.7
20260905174018 26 68 0.0 6.4 0.00 0.00 0.00 77 1017.4
20260905174010 26 68 0.0 0.0 0.00 0.00 0.00 76 1016.7
20260905173518 26 68 1.6 6.4 0.00 0.00 0.00 78 1017.6
20260905173510 26 68 3.2 0.0 0.00 0.00 0.00 77 1016.8
20260905173041 26 69 3.2 6.4 0.00 0.00 0.00 79 1017.6
20260905173011 26 68 4.8 0.0 0.00 0.00 0.00 79 1016.8
20260905172520 25 0 0.0 4.8 0.00 0.00 0.00 81 1017.6
20260905172020 25 67 1.6 4.8 0.00 0.00 0.00 81 1017.6
20260905172010 26 67 1.6 0.0 0.00 0.00 0.00 80 1016.9
20260905171538 25 0 0.0 6.4 0.00 0.00 0.00 82 1017.7
20260905171510 25 68 0.0 0.0 0.00 0.00 0.00 82 1016.9
20260905171017 25 68 3.2 6.4 0.00 0.00 0.00 81 1017.7
20260905171011 25 68 1.6 0.0 0.00 0.00 0.00 80 1016.8
20260905170518 25 68 1.6 6.4 0.00 0.00 0.00 83 1017.6
20260905170510 25 68 3.2 0.0 0.00 0.00 0.00 83 1016.9
20260905170046 25 66 3.2 6.4 0.00 0.00 0.00 83 1017.7
20260905170010 25 66 3.2 0.0 0.00 0.00 0.00 82 1017.0
20260905165520 25 0 0.0 6.4 0.00 0.00 0.00 83 1017.8
20260905165510 25 59 0.0 0.0 0.00 0.00 0.00 83 1017.1
20260905165018 25 0 0.0 6.4 0.00 0.00 0.00 84 1017.9
20260905165011 25 59 0.0 0.0 0.00 0.00 0.00 83 1017.1
20260905164542 25 59 3.2 6.4 0.00 0.00 0.00 84 1017.8
20260905164511 25 59 3.2 0.0 0.00 0.00 0.00 83 1017.1
20260905164019 25 32 1.6 4.8 0.00 0.00 0.00 85 1017.9
20260905164011 25 32 3.2 0.0 0.00 0.00 0.00 84 1017.2
20260905163521 24 0 1.6 6.4 0.00 0.00 0.00 84 1017.9
20260905163510 25 24 0.0 0.0 0.00 0.00 0.00 83 1017.2
20260905163038 24 24 1.6 6.4 0.00 0.00 0.00 87 1017.8